IRIDIUM 33 DEB, 38017

Orbit data source: Space-Track

IRIDIUM 33 DEB, 38017 is space debris in LEO originally from a launch on Sun, 14 Sep 1997 UTC launched from the Tyuratam Missile And Space Complex (TTMTR). The debris from Iridium 33, an American commercial communications satellite, has been tracked extensively since its accidental collision with the defunct Russian satellite Cosmos 2251 in 2009. This event, occurring at high speed in low Earth orbit (LEO), generated thousands of pieces of space debris, significantly increasing the risk of further collisions. The Iridium 33 debris cloud has impacted space traffic management and orbital debris mitigation strategies, making it a subject of ongoing study in space situational awareness.

Loading next visibility...
Identifier
38017, 1997-051YD
Orbit
LEO
Country
Flag of USUS
Related business
Manufacturer
Unknown
Mission
Spacecraft
Bus & Motor
Unknown
Mass
Unknown
Launch date (UTC)
1997-09-14 (28 years ago)
Launch vehicle
Unknown
Launch site
Tyuratam Missile And Space Complex (TTMTR)
Object type
Payload
Rocket body
Debris
Shape & HBR
Unknown shape, 0.1 m
Radar Cross Section
Small (<0.1 m²)

Expand to show TLE details & history
Last TLE update: 2 days ago

TLE from 2 days ago
0 IRIDIUM 33 DEB
1 38017U 97051YD  25296.13483006  .00028264  00000-0  74145-2 0  9995
2 38017  86.3370 188.1585 0101812 277.3537  81.6104 14.46003027606707
Epoch: 2025-10-23T03:14Z
TLE epoch observation values (Epoch: 2025-10-23T03:14:09.317Z)
Latitude
0.00004°
Longitude
107.82124°
Altitude
731.95 km
Speed
7.494 km/s
True Right ascension
12h 32m 38s
True Declination
0° 00' 00"
Sunlit
Object was in daylight at epoch
Visualization orbit readout
Latitude
Unknown
Longitude
Unknown
Altitude
Unknown
Speed
Unknown
Apparent Right ascension
Unknown
Apparent Declination
Unknown
Sunlit
N/A
Visualization observer readout
Local Sidereal Time
12:40:10
Azimuth
Unknown
Elevation
Unknown
Doppler factor
Unknown
Orbital elements
Apogee altitude
808.109 km
Perigee altitude
663.255 km
Semi-major axis
7,113.819 km
Eccentricity
0.01018
Inclination
86.337°
RAAN
188.1585°
Arg. of periapsis
277.3537°
True anomaly
82.76666°
Mean anomaly
81.6104°
Eccentric anomaly
82.18833°
Mean motion
3.61734 °/min
Orbital period
99.52 mins
BSTAR
0.0074145
Loading maneuver chart data...
Computing Atmospheric mass density...

Documentation

Showing up to 5 results
|